Zurück zum Katalog

THORAD AGENA D DEB

AktivLEO
NORAD 4214·DEBRIS·🇺🇸 United States

Gestartet Sep 30, 1969 von Vandenberg Space Force Base

Loading…

Nächste Überflüge (nächste 24 Stunden)

TLE

AktuellSource: Space-Track

Epoche: Sep 13, 2026, 22:23 UTC

1  4214U 69082CD  26256.93326700  .00000677  00000-0  20236-3 0  9993
2  4214  70.0487 229.3605 0059500 288.9457  70.5232 14.46189122973060

Verfolge THORAD AGENA D DEB in Echtzeit mit AllMySat

Download on the App Store